Showing default

NUSAT-49(K.VON NEUMANN), 60500

Orbit data source: Space-Track

NUSAT-49(K.VON NEUMANN), 60500 is a payload satellite owned by URUGUS S.A. (AR) in SSO that was launched on Fri, 16 Aug 2024 UTC via an FALCON 9 launch vehicle from the Air Force Western Test Range (AFWTR). Payload-class satellites include a variety of spacecraft equipped with specific instruments for various scientific and technological missions. These include communications satellites like Starlink; space stations such as the ISS; scientific satellites like the Hubble; Earth observation satellites from companies like Planet Labs, Umbra, and HawkEye 360; GPS; miniature CubeSats for education and research; and military/defense satellites.

Loading next visibility...
Identifier
60500, 2024-149AJ
Orbit
SSO
Country
Flag of ARAR / ARGN
Related business
Manufacturer
URUGUS S.A.
Mission
Operational Commercial Imaging
Bus & Motor
NEWSAT V, Unknown motor
Mass
41.5 kg wet, 38.5 kg dry
Launch date (UTC)
2024-08-16 (2 years ago)
Launch vehicle
FALCON 9
Launch site
Air Force Western Test Range (AFWTR)
Object type
Payload
Rocket body
Debris
Shape & HBR
Box, 1.0 m
Radar Cross Section
0.542 m², Medium (>0.1 m² and < 1m²)

Expand to show TLE details & history
Last TLE update: 13 hours ago

TLE from 13 hours ago
0 NUSAT-49(K.VON NEUMANN)
1 60500U 24149AJ  26255.70386800  .00006386  00000-0  22288-3 0  9991
2 60500  97.3738 336.3710 0002224  38.8084 321.3316 15.29946766115511
Epoch: 2026-09-12T16:53Z
TLE epoch observation values (Epoch: 2026-09-12T16:53:34.195Z)
Latitude
-0.00001°
Longitude
91.26946°
Altitude
477.886 km
Speed
7.627 km/s
True Right ascension
22h 25m 29s
True Declination
0° 00' 00"
Sunlit
Object was in full shadow at epoch
Visualization orbit readout
Latitude
Unknown
Longitude
Unknown
Altitude
Unknown
Speed
Unknown
Apparent Right ascension
Unknown
Apparent Declination
Unknown
Sunlit
N/A
Visualization observer readout
Local Sidereal Time
22:06:37
Azimuth
Unknown
Elevation
Unknown
Doppler factor
Unknown
Orbital elements
Apogee altitude
474.446 km
Perigee altitude
471.399 km
Semi-major axis
6,851.059 km
Eccentricity
0.00022
Inclination
97.3738°
RAAN
336.371°
Arg. of periapsis
38.8084°
True anomaly
321.31567°
Mean anomaly
321.3316°
Eccentric anomaly
321.32364°
Mean motion
3.82742 °/min
Orbital period
94.06 mins
BSTAR
0.00022288
Loading maneuver chart data...
Computing Atmospheric mass density...
Loading historical data...
Loading historical data...
Loading historical data...
Loading historical data...
Loading historical data...
Loading historical data...
Loading historical data...

Documentation

Showing up to 5 results
|